Wind_Speed
35 38 41 43 44 47 48 49 52 55 58 64 67 73 73 77 82 83 88 92 93 96 98 100 97 90 73 55 37 24 11 4 18 34 50 63 80 96 108 113 119 118 114 109
39 39 41 43 44 45 45 47 49 52 56 61 66 68 73 73 76 80 82 86 90 93 97 99 97 93 84 69 53 36 23 10 4 18 32 48 62 80 98 110 116 120 118 115
39 37 39 41 43 44 44 46 48 51 54 58 61 65 70 68 74 77 77 81 85 90 92 95 96 95 92 84 65 50 35 20 8 6 18 32 47 64 86 102 111 119 122 119
33 33 35 38 39 41 40 44 44 48 52 55 58 61 65 67 72 72 75 78 82 86 89 91 92 92 91 88 83 63 47 34 18 6 7 18 32 47 67 90 104 112 119 123
27 30 34 33 34 37 39 42 43 46 50 53 55 60 62 68 69 73 73 75 79 83 85 86 86 89 90 89 87 82 65 45 33 18 4 8 20 34 49 72 90 104 111 120
25 27 29 30 30 33 36 38 42 45 47 49 52 58 60 63 65 70 70 74 74 78 81 83 84 85 85 88 87 84 80 70 47 31 19 3 11 23 35 51 72 92 105 112
26 25 27 24 27 30 33 35 39 42 44 44 49 55 56 62 66 64 67 70 74 76 79 80 80 82 83 83 86 83 81 78 68 48 31 18 5 13 25 37 52 73 93 106
22 22 25 25 26 28 31 35 36 37 41 43 49 53 54 62 61 63 64 69 72 74 74 78 81 79 82 82 83 85 83 79 75 64 50 32 19 9 16 25 37 51 72 94
22 20 23 23 24 28 32 33 33 35 38 44 48 50 56 57 60 62 65 68 70 74 77 75 77 80 77 78 79 80 81 81 74 72 64 49 33 20 15 18 28 37 49 69
24 22 22 25 27 30 32 33 35 35 39 44 44 48 54 59 59 63 64 65 70 71 75 77 75 78 77 79 80 83 83 79 79 75 67 58 49 36 22 17 22 30 39 48
30 31 34 32 33 35 37 34 33 39 41 44 48 52 51 53 60 65 62 63 67 70 71 75 83 78 78 82 84 83 82 84 80 75 75 66 57 46 36 28 22 26 32 41
34 36 40 40 41 40 38 37 38 42 47 48 52 53 55 59 60 67 72 71 70 67 69 76 84 84 80 84 84 85 87 82 84 85 73 71 65 56 46 32 27 27 27 34
36 38 40 42 43 42 40 40 43 47 51 53 56 55 59 62 69 70 72 72 69 71 81 77 82 88 88 86 88 92 90 89 82 84 85 76 68 63 57 46 32 27 30 31
39 41 43 42 44 43 45 47 49 51 54 57 56 60 65 67 70 72 69 71 78 81 82 82 85 88 84 88 89 91 86 88 88 86 82 80 74 68 59 55 46 37 29 33
42 40 44 47 49 48 51 54 56 55 53 62 63 66 68 68 69 71 72 74 80 84 85 84 82 85 91 90 91 85 90 90 91 89 89 87 80 73 66 58 53 47 38 33
47 49 50 52 55 56 56 54 55 57 62 64 63 67 72 75 78 80 81 82 83 86 88 84 90 94 90 88 87 91 92 95 93 94 92 91 92 83 74 65 60 54 46 39
50 53 53 53 55 57 59 62 65 68 69 72 74 77 81 82 82 83 85 86 88 90 92 93 93 89 89 93 93 94 93 95 98 98 98 97 95 90 82 73 64 60 53 46
57 60 60 61 64 66 67 67 68 70 71 73 75 77 80 82 84 86 88 89 91 91 92 89 91 92 93 94 93 93 97 99 103 101 100 99 94 92 88 76 70 63 59 52
65 66 66 69 70 71 72 72 71 73 76 78 80 80 81 82 85 87 86 90 92 95 95 94 97 97 97 99 100 98 101 102 104 104 101 100 98 96 88 80 73 67 62 58
70 71 74 77 77 77 79 81 84 85 87 87 86 87 89 91 90 92 93 95 98 101 100 102 103 105 105 106 106 105 106 109 109 108 104 103 97 97 86 80 76 71 65 60
81 83 81 81 83 84 85 87 88 89 90 92 95 96 96 97 97 98 99 98 101 104 104 106 108 109 111 112 114 115 117 116 116 111 105 104 100 93 85 78 73 70 66 60
87 87 87 89 89 90 92 92 92 93 96 99 103 104 103 103 104 105 103 104 105 108 107 108 113 114 115 114 115 118 119 121 119 112 103 97 95 89 82 76 72 67 62 59
94 93 94 95 97 97 98 99 99 99 100 104 107 109 109 111 112 112 110 111 113 114 114 116 120 119 119 120 122 122 124 121 114 109 100 95 90 83 77 72 68 64 59 56
98 100 99 98 100 102 102 103 104 105 107 111 114 113 114 115 115 117 116 117 117 117 118 122 125 124 124 122 122 124 123 114 106 101 98 93 85 75 69 66 64 61 59 54
107 107 105 107 109 109 108 109 110 112 114 117 118 118 118 120 120 120 120 120 120 123 125 124 124 124 122 122 122 119 111 103 98 95 91 84 78 71 65 62 60 57 54 52
111 113 111 110 113 114 114 116 119 118 118 121 124 125 123 124 124 124 123 124 125 126 125 126 127 125 124 119 117 106 100 95 94 89 82 77 73 68 62 59 56 53 51 49
117 116 116 117 117 119 119 120 123 124 125 124 121 121 123 125 125 126 127 125 131 131 132 132 127 122 114 105 102 96 93 92 86 77 72 70 66 63 59 55 52 50 48 46
Wind_Direction
328 328 331 339 347 350 355 359 1 2 4 5 6 7 10 9 11 12 11 12 15 15 19 22 27 29 27 28 35 33 25 256 222 216 216 215 213 212 213 213 215 217 215 215
321 324 327 335 343 347 352 358 0 360 3 6 5 6 8 9 10 11 12 15 15 15 15 18 22 28 29 27 25 35 33 23 261 224 218 217 215 212 213 214 215 216 217 216
312 318 322 330 337 343 349 356 1 357 2 5 3 5 7 10 11 12 13 16 15 15 15 17 18 21 27 27 29 24 30 36 24 252 225 220 217 213 211 215 217 217 218 219
307 312 318 326 333 338 349 352 359 356 359 2 3 4 6 8 11 15 14 15 14 14 14 15 15 17 21 26 25 27 25 25 34 28 251 225 219 217 214 213 218 219 219 221
313 312 316 322 330 339 348 349 354 355 358 359 2 3 6 7 12 12 11 14 12 13 13 14 15 14 16 19 24 27 25 23 21 27 11 241 225 218 215 215 215 220 222 221
316 311 313 322 331 343 346 347 350 352 356 357 0 2 4 7 8 8 10 11 12 12 12 12 13 12 15 16 19 22 27 24 19 16 17 343 233 225 219 216 216 217 221 223
333 324 326 331 341 345 343 343 349 353 352 356 359 360 1 0 4 8 8 10 9 10 10 10 11 12 11 14 13 15 19 24 22 16 12 1 315 234 230 222 218 218 219 222
347 331 329 339 341 343 336 343 347 349 348 354 356 357 357 357 1 3 5 5 5 5 8 8 7 9 10 10 11 10 12 15 21 23 14 5 350 305 237 232 228 222 220 221
331 339 335 335 337 334 335 340 339 343 346 348 351 353 354 354 356 356 359 3 2 2 3 6 5 4 6 7 6 8 7 8 12 15 19 13 359 344 300 249 232 232 227 222
327 329 327 323 327 328 329 334 334 339 342 344 347 347 351 352 354 352 355 358 357 0 0 1 5 4 3 4 4 3 4 3 4 6 9 14 14 356 333 295 259 237 231 232
327 329 330 325 322 323 326 327 329 332 336 342 342 341 344 347 347 346 347 349 350 353 357 358 357 359 359 359 360 359 2 1 1 1 0 3 6 7 356 329 299 264 245 234
326 326 332 327 326 324 324 323 322 327 330 335 338 338 340 338 339 341 341 342 346 350 350 351 350 352 354 355 356 357 356 356 357 358 358 355 357 358 360 352 322 297 265 251
324 323 325 327 325 324 323 320 321 323 327 329 331 332 335 336 334 336 337 340 340 344 343 344 345 344 344 347 348 347 348 350 353 354 355 353 351 351 349 350 343 318 293 269
324 327 324 324 323 321 323 325 325 323 323 326 327 328 328 331 332 333 335 335 334 336 337 338 336 339 341 342 343 342 346 348 348 348 350 351 348 346 344 341 340 332 311 287
317 316 315 319 320 321 319 317 317 319 323 328 327 328 330 332 331 331 331 332 331 331 330 334 337 337 336 336 338 341 342 342 342 344 346 345 346 342 340 337 332 329 320 299
314 312 313 314 314 315 318 319 318 318 321 321 323 325 326 326 325 326 327 328 328 328 328 329 331 332 333 333 334 334 337 337 339 340 341 341 340 341 337 333 329 324 318 305
323 323 323 321 321 323 322 322 321 320 319 320 320 322 321 321 322 323 323 324 323 323 323 325 326 328 328 329 330 331 333 332 334 335 337 336 335 335 333 330 326 321 315 308
316 316 319 320 321 321 321 321 321 323 322 322 321 320 319 319 319 320 320 321 321 322 322 325 325 323 323 324 327 329 330 330 330 332 333 332 331 332 328 325 323 318 313 308
311 312 314 314 314 315 317 318 321 321 321 322 320 320 320 319 320 321 321 320 320 320 320 322 323 324 324 325 325 324 325 328 328 330 329 328 327 326 325 321 318 315 311 306
309 310 309 310 312 312 312 314 314 315 315 318 320 320 318 317 316 317 317 317 317 318 318 319 319 320 321 323 324 325 326 326 327 326 325 323 324 323 319 318 315 311 307 302
307 308 308 307 307 308 310 311 311 311 312 313 313 313 315 316 315 314 313 313 313 314 316 316 317 318 319 320 322 322 323 323 323 320 320 319 319 316 314 312 310 306 303 299
301 301 302 303 305 304 304 306 306 306 307 309 310 310 309 310 312 313 312 313 313 314 315 316 316 316 316 318 319 320 320 320 320 318 315 315 314 313 310 308 305 303 299 294
296 297 299 300 301 301 301 302 302 304 305 306 306 306 306 308 309 312 313 312 313 313 312 313 314 315 315 316 317 318 318 317 314 314 310 309 310 309 308 305 300 298 295 291
292 293 294 295 297 297 298 299 300 299 300 301 304 305 306 308 309 310 310 311 310 310 311 312 312 313 312 313 314 314 313 312 310 309 308 308 307 307 304 302 298 296 294 291
290 292 291 293 296 296 296 297 298 299 299 301 303 305 304 304 305 307 307 307 309 310 310 310 310 310 309 310 310 309 307 306 306 306 307 306 305 303 303 301 298 295 294 291
288 289 289 291 293 293 293 294 296 297 297 298 300 301 301 302 304 305 306 306 306 306 307 307 308 308 309 308 307 305 305 305 304 304 305 305 303 302 301 299 297 296 295 292
285 286 286 288 289 290 291 292 294 295 295 296 297 299 302 302 302 302 303 305 306 307 308 308 306 305 304 303 302 303 303 303 304 305 305 304 303 301 300 299 299 297 295 293
Height
10624 10616 10608 10603 10596 10588 10580 10570 10562 10552 10542 10530 10519 10506 10493 10479 10465 10451 10436 10421 10406 10391 10378 10365 10351 10339 10327 10319 10314 10310 10309 10310 10315 10322 10331 10341 10357 10374 10389 10407 10424 10441 10457 10473
10617 10612 10604 10598 10592 10585 10579 10570 10562 10553 10542 10531 10519 10507 10497 10484 10470 10457 10443 10429 10415 10401 10386 10375 10365 10352 10339 10330 10322 10318 10314 10314 10316 10320 10327 10336 10348 10363 10378 10391 10408 10424 10440 10456
10611 10606 10600 10594 10588 10582 10576 10569 10561 10551 10542 10531 10520 10510 10499 10487 10475 10462 10450 10437 10423 10410 10397 10385 10373 10362 10353 10341 10332 10325 10321 10318 10318 10320 10324 10331 10341 10353 10366 10378 10390 10406 10421 10437
10605 10601 10596 10590 10584 10579 10575 10567 10560 10550 10541 10532 10523 10513 10502 10490 10479 10467 10456 10443 10431 10418 10406 10394 10381 10372 10362 10354 10342 10332 10328 10323 10321 10320 10322 10326 10333 10343 10354 10365 10377 10390 10404 10418
10598 10593 10590 10587 10582 10576 10571 10563 10556 10548 10540 10531 10523 10514 10503 10492 10481 10471 10460 10448 10436 10424 10412 10402 10391 10380 10370 10360 10352 10343 10333 10328 10325 10324 10322 10323 10327 10333 10342 10354 10364 10376 10388 10401
10593 10588 10585 10581 10577 10573 10568 10560 10552 10546 10540 10532 10523 10514 10505 10494 10483 10473 10462 10451 10441 10430 10419 10409 10399 10387 10378 10366 10359 10350 10343 10334 10328 10326 10324 10322 10323 10326 10331 10339 10349 10360 10370 10382
10587 10583 10580 10578 10575 10570 10565 10558 10552 10545 10538 10531 10522 10513 10504 10494 10484 10475 10465 10454 10444 10434 10424 10413 10404 10393 10384 10375 10364 10357 10349 10343 10335 10327 10325 10323 10321 10321 10323 10327 10334 10342 10352 10363
10584 10580 10575 10573 10570 10565 10560 10554 10549 10542 10535 10528 10520 10511 10502 10493 10484 10475 10466 10456 10447 10437 10429 10418 10407 10397 10387 10378 10369 10360 10353 10347 10341 10334 10326 10322 10321 10319 10316 10318 10322 10326 10333 10341
10581 10578 10573 10569 10565 10560 10555 10551 10545 10539 10532 10524 10516 10508 10500 10492 10483 10475 10467 10457 10448 10438 10428 10422 10411 10401 10392 10383 10373 10363 10353 10346 10340 10334 10329 10323 10317 10316 10314 10312 10310 10313 10318 10323
10575 10573 10569 10564 10560 10555 10550 10545 10539 10533 10527 10520 10513 10506 10498 10489 10481 10473 10465 10457 10448 10439 10428 10418 10413 10403 10394 10384 10374 10363 10354 10346 10337 10332 10327 10322 10316 10310 10307 10306 10303 10302 10301 10306
10570 10567 10563 10559 10554 10550 10546 10540 10535 10529 10522 10516 10510 10503 10495 10487 10479 10470 10462 10455 10446 10438 10429 10418 10407 10402 10393 10383 10374 10364 10356 10345 10337 10330 10320 10317 10312 10307 10301 10296 10294 10293 10290 10288
10566 10561 10558 10553 10548 10544 10539 10534 10529 10524 10518 10512 10505 10499 10491 10484 10476 10466 10456 10450 10444 10436 10426 10417 10406 10395 10389 10381 10370 10362 10352 10344 10333 10325 10319 10309 10303 10298 10295 10288 10283 10280 10279 10277
10560 10556 10553 10549 10543 10539 10534 10530 10524 10519 10512 10506 10499 10491 10485 10478 10471 10462 10451 10441 10434 10430 10423 10413 10404 10392 10383 10376 10366 10356 10347 10337 10328 10319 10311 10302 10295 10288 10282 10279 10273 10268 10263 10262
10553 10549 10544 10542 10538 10533 10527 10523 10518 10513 10507 10498 10491 10484 10476 10470 10462 10454 10446 10436 10425 10419 10415 10407 10398 10388 10377 10367 10359 10349 10340 10331 10321 10311 10304 10295 10287 10280 10274 10266 10262 10257 10252 10246
10546 10542 10537 10533 10528 10526 10520 10514 10509 10504 10498 10490 10482 10475 10466 10459 10452 10445 10438 10430 10419 10408 10403 10397 10388 10379 10369 10360 10350 10341 10331 10322 10312 10301 10292 10284 10276 10269 10261 10255 10248 10243 10239 10233
10535 10532 10529 10524 10519 10515 10511 10504 10498 10492 10486 10479 10472 10465 10456 10448 10440 10433 10426 10418 10409 10399 10389 10384 10377 10368 10356 10349 10340 10330 10320 10310 10301 10289 10279 10271 10261 10254 10246 10239 10233 10228 10222 10216
10527 10520 10517 10512 10507 10502 10497 10491 10485 10479 10473 10467 10460 10453 10445 10437 10428 10419 10411 10404 10395 10386 10378 10370 10363 10356 10345 10336 10329 10319 10308 10297 10287 10276 10264 10254 10244 10234 10227 10220 10212 10207 10203 10198
10515 10510 10505 10500 10495 10489 10483 10478 10472 10466 10459 10451 10445 10438 10430 10422 10415 10407 10400 10392 10382 10373 10364 10360 10349 10341 10331 10322 10314 10306 10294 10283 10271 10260 10249 10238 10226 10216 10208 10199 10191 10185 10179 10176
10503 10498 10494 10487 10483 10476 10470 10464 10459 10452 10445 10439 10432 10423 10415 10406 10399 10391 10385 10375 10366 10357 10347 10339 10330 10321 10312 10303 10294 10287 10277 10264 10252 10241 10230 10220 10208 10197 10187 10178 10169 10162 10156 10150
10486 10483 10478 10472 10466 10462 10454 10447 10441 10434 10427 10421 10414 10406 10398 10390 10383 10376 10369 10361 10348 10339 10331 10320 10309 10298 10287 10278 10269 10262 10253 10242 10231 10219 10210 10199 10188 10177 10166 10156 10148 10140 10132 10126
10468 10463 10460 10455 10449 10442 10437 10431 10424 10416 10407 10402 10397 10390 10383 10373 10366 10358 10350 10344 10330 10319 10309 10299 10289 10279 10268 10256 10248 10235 10222 10213 10207 10196 10184 10175 10165 10154 10144 10133 10124 10117 10110 10103
10450 10446 10442 10436 10432 10425 10419 10414 10409 10400 10390 10382 10374 10367 10361 10354 10346 10337 10326 10316 10309 10297 10287 10277 10264 10252 10242 10234 10225 10214 10200 10188 10176 10166 10157 10147 10137 10127 10118 10107 10101 10094 10087 10080
10429 10425 10420 10414 10408 10403 10397 10392 10385 10379 10372 10363 10353 10343 10336 10330 10321 10311 10304 10291 10280 10270 10263 10253 10241 10229 10216 10205 10196 10184 10174 10161 10148 10137 10126 10117 10109 10100 10092 10083 10074 10067 10062 10056
10408 10403 10399 10394 10388 10382 10377 10371 10363 10356 10348 10339 10329 10318 10308 10300 10293 10282 10275 10267 10257 10248 10237 10225 10214 10202 10190 10178 10165 10153 10142 10131 10119 10108 10099 10091 10083 10072 10064 10057 10049 10041 10037 10032
10380 10377 10372 10367 10362 10355 10349 10341 10332 10327 10320 10310 10301 10291 10282 10273 10267 10261 10249 10239 10228 10216 10208 10196 10184 10171 10159 10147 10137 10124 10112 10102 10091 10081 10072 10063 10056 10046 10037 10031 10024 10017 10012 10008
10353 10349 10345 10341 10335 10327 10320 10313 10306 10298 10292 10285 10275 10265 10256 10246 10235 10226 10217 10208 10200 10189 10178 10166 10153 10139 10128 10116 10105 10093 10082 10072 10062 10054 10046 10037 10028 10022 10014 10006 10001 9995 9990 9985
10326 10322 10316 10310 10304 10299 10293 10287 10280 10270 10262 10256 10249 10236 10227 10216 10205 10194 10183 10171 10159 10150 10142 10132 10120 10107 10094 10085 10075 10063 10053 10045 10037 10029 10020 10012 10004 9998 9991 9984 9979 9974 9969 9964